GFSMW_925_spd_159.txt.gz
Wind_Speed
21 25 26 27 29 29 30 31 29 29 28 26 23 19 16 14 12 11 12 14 14 14 11 6 0 1 4 2 3 5 4 4 5 4 3 9 8 7 5 7 10 8 7
13 19 24 26 30 34 33 33 33 31 32 30 26 21 20 17 16 14 13 14 15 14 11 8 4 3 4 2 2 4 4 3 7 4 3 4 1 4 2 4 3 1 7
17 16 23 29 29 31 36 37 36 35 35 33 27 21 18 18 18 18 15 16 15 14 14 11 7 7 4 2 2 3 3 3 3 6 5 2 1 6 4 3 4 7 9
18 17 21 26 30 34 37 38 37 35 34 35 30 30 23 21 20 19 18 17 19 19 17 14 12 11 9 6 4 3 3 3 3 2 5 3 1 0 4 4 8 11 11
19 19 21 30 34 31 35 39 38 36 35 34 33 31 28 21 16 18 20 20 21 22 20 17 17 15 13 11 8 8 7 4 2 3 2 2 2 1 1 3 9 11 12
16 17 28 30 29 29 29 32 39 39 37 35 33 31 29 24 19 17 21 21 22 23 22 20 18 16 15 14 12 12 12 9 7 6 6 4 2 1 0 1 2 5 6
16 14 17 21 24 28 30 30 35 39 41 39 36 33 30 29 24 21 21 25 24 24 22 21 21 19 16 17 16 14 15 13 11 9 10 9 9 6 5 5 3 2 5
16 19 18 25 27 30 31 31 34 34 40 42 41 38 33 32 29 23 20 26 26 26 23 25 23 21 20 20 19 17 17 15 15 11 12 12 13 11 10 7 3 2 3
16 17 16 26 29 30 33 36 34 35 37 41 40 41 36 33 32 27 22 21 27 28 27 25 26 25 24 24 23 23 21 19 17 15 12 12 14 13 12 11 11 6 1
16 16 16 25 27 32 34 32 34 39 41 40 39 41 37 34 30 28 26 26 22 21 21 24 25 25 25 25 27 27 24 21 20 18 17 17 16 13 13 13 13 10 6
16 16 17 27 30 30 31 33 30 31 32 36 38 38 37 35 35 31 28 26 27 26 25 25 26 25 25 26 27 29 27 24 22 22 20 19 19 17 12 9 10 13 12
15 14 13 21 25 28 28 31 31 30 36 35 34 35 35 34 34 36 32 30 28 25 26 27 28 28 27 27 27 28 30 28 26 24 23 23 19 18 18 17 18 16 16
9 10 10 13 21 27 27 28 29 32 30 32 32 32 32 32 34 36 37 34 30 28 27 26 28 29 29 31 31 30 31 32 31 29 28 27 25 24 22 20 18 18 16
8 7 7 9 13 20 22 24 25 27 29 30 31 32 32 32 34 34 31 27 21 14 19 24 24 26 26 29 32 31 34 33 34 33 33 32 30 29 26 23 22 21 18
6 6 5 4 2 12 14 19 23 27 30 31 31 32 32 31 30 25 24 21 23 23 31 34 33 33 26 22 27 31 36 37 36 36 34 33 33 32 29 27 26 23 22
7 7 7 6 4 12 23 28 25 28 29 28 26 29 25 23 21 17 17 16 19 24 30 36 36 32 32 35 35 35 34 40 42 40 39 37 36 34 31 29 29 28 26
7 8 8 8 6 16 24 28 29 25 23 20 19 16 20 12 11 8 7 5 6 18 31 37 34 38 37 29 29 38 41 41 43 41 38 35 34 33 34 33 30 29 29
7 6 5 12 22 12 14 20 24 21 20 17 15 16 17 17 12 7 5 3 4 7 11 16 20 24 33 34 30 33 32 32 36 36 36 33 34 34 32 29 28 30 30
7 7 5 4 6 6 4 18 21 23 25 24 20 17 14 13 9 5 3 4 6 8 11 17 23 26 32 34 35 31 26 27 32 34 36 35 36 36 34 31 30 28 29
10 13 16 18 7 7 12 25 26 28 25 22 20 17 13 11 11 9 8 8 9 11 15 20 22 26 32 32 31 29 30 31 27 28 36 36 35 34 35 35 32 30 33
14 16 16 18 18 22 23 22 25 24 26 23 20 17 14 14 12 12 12 12 14 16 19 22 24 26 27 31 27 22 24 29 25 26 25 29 31 28 32 33 30 33 29
15 21 18 16 21 28 30 23 23 25 23 22 22 19 16 16 15 15 16 18 19 19 17 24 27 26 24 23 25 25 25 28 29 29 29 27 24 24 22 24 30 29 24
15 20 21 19 19 22 27 26 26 26 25 23 22 20 19 17 17 19 19 20 21 19 22 22 23 27 30 28 24 21 23 26 31 32 33 25 24 18 18 17 20 27 26
15 19 21 17 18 23 27 30 30 27 26 25 22 20 18 18 17 17 16 15 20 17 22 23 23 25 27 30 30 24 21 19 21 24 25 25 22 19 15 12 17 22 20
18 22 20 18 19 23 24 29 29 26 24 24 22 19 17 18 16 15 16 16 14 15 17 19 21 21 24 28 27 19 16 14 14 18 18 21 21 22 22 22 24 26 31
18 17 19 21 23 24 25 27 27 26 27 26 23 20 18 15 13 13 12 13 13 13 13 16 19 20 20 22 22 16 5 6 17 19 21 19 22 24 24 26 27 31 36

GFSMW_925_spd_162.txt.gz
Wind_Speed
14 19 24 25 24 25 23 23 24 24 24 22 21 18 20 16 13 12 10 11 10 10 8 5 2 1 2 1 2 2 3 4 9 6 4 5 10 7 7 9 8 8 5
9 17 22 25 28 29 27 25 26 26 26 26 24 20 20 17 14 12 11 10 13 13 12 9 5 3 3 2 1 3 2 3 8 5 3 3 3 10 2 8 4 2 6
14 14 20 26 27 30 33 31 30 29 28 27 24 19 15 15 12 14 11 10 12 14 13 11 9 5 3 3 1 2 3 3 3 5 3 1 1 5 5 8 7 8 10
15 15 20 23 29 34 35 34 32 32 30 29 27 25 21 19 19 15 13 11 13 13 13 13 11 9 8 7 6 4 4 4 3 3 3 2 1 0 3 4 9 12 14
18 17 20 30 34 29 35 37 35 34 33 33 31 28 26 23 19 16 15 14 14 15 16 15 12 13 11 10 10 9 7 7 5 5 4 2 1 1 1 2 8 11 12
17 17 29 27 27 27 29 33 37 36 35 35 34 33 30 27 21 18 16 17 16 16 17 17 15 14 14 14 12 12 11 11 10 9 9 7 4 3 2 1 2 5 8
15 14 15 20 23 26 29 30 34 36 37 36 34 34 33 29 28 22 16 15 17 16 16 18 17 17 16 15 15 15 13 14 13 12 12 12 12 9 5 3 2 2 4
13 15 18 24 27 30 30 31 34 36 37 38 37 34 33 32 29 25 20 17 17 20 18 18 17 18 19 17 16 17 16 15 16 15 15 14 13 13 11 7 3 1 2
15 16 15 25 26 28 32 37 36 36 38 40 38 37 34 32 29 25 23 20 17 18 19 19 20 20 22 21 18 19 21 19 18 18 17 16 14 14 13 12 11 5 2
13 12 14 25 28 30 35 31 30 36 40 39 37 37 35 33 31 26 26 24 21 18 17 18 18 18 20 20 20 21 24 24 23 21 20 19 18 17 14 14 16 15 11
13 13 12 21 26 27 29 33 31 33 34 36 35 35 35 34 34 30 28 26 24 21 20 19 18 18 19 20 21 21 23 24 26 24 22 23 21 19 18 16 13 13 14
11 12 10 20 24 27 29 31 32 31 35 35 36 34 33 33 34 32 31 29 26 23 20 21 22 20 21 22 23 25 25 24 24 26 25 27 24 23 21 20 20 19 19
7 6 7 10 20 23 25 27 29 31 27 36 34 34 33 30 36 34 31 29 30 26 24 23 24 23 22 21 21 23 25 26 26 28 27 27 28 27 25 23 21 21 21
6 6 6 7 15 21 24 27 28 29 28 29 30 30 33 33 32 30 27 26 25 28 30 30 29 25 24 23 23 23 24 25 24 26 31 30 31 30 28 28 28 25 23
7 8 9 8 13 19 21 23 24 31 31 29 27 30 28 28 25 23 20 20 23 25 27 27 27 30 26 26 23 22 21 24 26 25 28 31 32 32 31 30 30 28 25
7 6 7 7 10 18 22 24 27 30 31 29 28 25 18 14 15 18 15 16 17 21 25 27 26 25 28 25 28 24 26 27 28 29 29 29 32 34 35 33 31 31 28
9 8 8 7 12 19 27 30 29 28 27 26 24 19 16 7 5 10 13 12 12 13 18 23 25 27 26 27 28 29 28 27 32 30 27 28 30 34 35 33 31 32 33
9 8 6 10 12 16 22 22 16 20 21 20 19 20 19 18 12 9 7 6 4 6 10 14 17 24 29 29 29 28 27 31 29 30 31 31 32 30 35 31 30 31 31
8 8 12 11 8 5 14 20 23 26 24 22 21 23 25 22 16 11 7 3 2 5 8 11 16 20 27 30 33 32 34 36 37 34 33 34 35 34 35 27 30 31 33
13 13 11 14 11 11 13 18 21 28 25 28 28 24 22 19 15 11 8 5 4 6 11 14 17 19 24 27 27 26 29 31 32 31 31 34 35 35 33 32 30 26 32
15 15 17 16 16 19 23 20 25 12 32 31 29 26 23 19 16 15 12 10 10 11 15 20 21 24 26 27 24 22 24 26 25 25 27 29 32 35 32 32 33 31 28
13 14 9 10 21 26 25 17 32 21 32 32 31 29 25 22 19 17 15 16 15 17 19 23 26 28 30 31 30 28 24 27 30 28 24 27 26 25 25 26 28 30 26
13 16 13 10 8 12 16 28 30 30 30 29 29 27 25 22 19 18 16 16 16 15 18 18 20 25 31 33 34 33 31 24 27 33 34 30 26 23 25 22 16 17 24
12 16 16 14 14 15 18 26 30 26 27 27 26 26 25 21 17 17 14 16 16 17 17 17 19 29 33 30 32 35 34 24 22 25 28 28 28 27 24 20 16 16 23
12 17 16 17 16 21 25 33 33 31 30 28 26 25 24 21 19 18 17 18 16 14 14 19 24 24 26 29 27 24 30 20 15 14 18 19 18 18 17 14 15 19 25
16 15 17 20 20 24 31 34 34 31 31 29 27 26 24 19 17 17 15 15 14 13 15 16 20 27 25 22 21 22 18 11 6 5 9 13 17 19 21 24 26 27 30

GFSMW_925_spd_165.txt.gz
Wind_Speed
15 18 18 18 17 16 16 17 17 16 17 14 15 12 14 17 13 9 9 8 8 9 7 4 3 1 0 0 1 3 4 3 7 4 5 5 5 5 5 5 3 2 3
15 18 21 20 20 20 19 18 18 19 20 18 20 14 18 17 13 10 12 10 12 12 10 9 5 2 1 3 1 2 3 2 5 4 3 3 1 5 3 4 3 2 4
19 17 22 25 23 22 22 22 21 21 21 21 17 18 14 12 10 11 12 11 12 14 13 11 8 5 2 3 1 2 2 4 4 5 3 3 4 9 4 4 6 5 5
20 17 20 23 27 27 23 21 23 23 24 24 18 19 18 16 16 11 12 11 11 11 13 12 11 9 6 6 3 4 4 4 4 4 4 3 2 2 4 4 7 9 7
22 21 23 28 30 25 26 25 25 25 24 27 24 20 19 15 10 10 10 11 10 12 13 13 12 12 9 8 8 6 6 5 6 4 5 5 4 3 3 6 9 10 9
22 21 29 24 24 23 23 24 25 28 27 27 28 25 21 18 14 12 10 11 10 11 15 15 15 14 12 11 9 10 9 8 8 9 8 6 5 5 4 4 9 9 8
22 21 20 23 24 26 26 25 25 26 27 27 27 28 25 21 18 17 15 12 11 12 13 16 17 17 15 13 12 12 12 11 10 9 9 8 8 8 8 8 9 8 10
19 21 21 27 28 30 29 28 27 28 28 27 29 30 29 23 21 19 17 14 12 11 13 15 16 16 15 15 14 13 13 11 12 11 10 11 10 8 9 10 8 7 9
18 20 21 27 27 28 30 32 30 30 29 29 27 28 28 25 23 24 22 19 19 14 12 14 14 15 15 16 17 15 15 14 14 14 13 12 12 10 10 10 11 11 8
16 18 18 27 29 31 33 29 29 29 30 27 26 26 27 29 27 25 25 23 22 19 16 14 16 17 18 17 15 15 16 16 15 15 14 14 13 12 11 13 13 12 13
16 17 17 26 28 26 27 29 28 28 29 27 29 27 24 24 24 24 26 26 23 23 21 19 18 17 16 15 15 17 16 15 16 17 17 18 17 14 14 14 15 15 16
14 15 16 23 25 29 29 29 29 28 32 25 26 26 23 22 23 23 22 26 25 24 24 22 22 22 21 20 18 17 16 16 16 16 17 18 17 16 15 15 14 16 15
11 13 14 15 23 26 27 29 29 29 26 27 30 26 25 23 22 21 20 20 21 24 25 24 23 23 21 20 20 19 17 18 18 18 18 18 19 18 19 17 16 15 17
10 12 13 15 20 23 24 25 26 25 26 26 31 27 25 22 21 16 17 19 21 24 22 24 23 23 21 22 21 19 19 19 19 19 19 19 20 20 20 18 19 19 17
8 11 12 12 16 18 20 22 23 25 27 27 26 24 17 23 24 24 17 19 20 21 20 18 17 18 17 16 17 17 19 19 19 18 20 21 22 24 24 21 19 19 19
9 9 9 11 14 19 21 23 25 26 27 26 25 17 21 22 28 25 17 20 18 16 13 13 13 13 15 16 18 18 16 19 21 22 23 23 23 25 28 28 26 24 22
10 11 10 11 14 17 20 22 21 22 24 23 20 21 21 20 20 19 17 15 16 12 9 8 10 11 11 13 13 16 19 21 23 24 23 23 24 24 24 24 28 27 27
10 10 8 11 11 13 15 14 16 19 20 17 17 19 21 21 19 17 17 15 11 9 7 6 8 9 7 12 15 18 23 26 29 27 26 28 27 26 25 24 23 22 22
8 10 10 10 9 7 8 12 14 16 19 23 22 20 19 19 17 16 13 10 8 4 0 3 6 8 7 12 16 18 16 19 22 24 26 26 28 31 31 29 27 25 23
10 11 11 11 12 12 14 15 12 8 6 14 16 18 18 19 15 12 10 9 7 5 4 4 5 8 11 15 18 17 15 18 20 22 25 28 31 31 30 29 28 26 25
10 11 12 14 15 17 20 22 22 20 15 14 8 14 24 19 16 14 11 9 8 6 4 4 8 9 12 14 19 20 16 17 21 22 23 24 23 25 28 32 28 27 23
12 13 14 15 15 18 24 23 23 25 21 22 12 4 19 16 15 14 12 9 6 6 9 12 11 11 13 16 19 24 26 26 27 27 24 24 24 23 21 22 29 28 27
15 15 16 15 16 19 23 24 25 30 28 24 17 13 15 16 13 12 11 7 8 10 12 11 12 16 18 18 22 30 31 32 29 26 26 27 26 23 21 27 20 21 21
17 17 18 17 15 19 19 19 19 27 36 31 22 17 16 15 12 11 8 9 10 10 10 12 15 18 21 23 28 32 33 33 27 18 18 22 25 22 19 18 22 22 21
18 19 18 20 19 21 24 25 24 33 33 31 22 16 16 15 14 11 11 11 11 11 10 11 13 18 20 28 26 24 26 24 18 10 12 14 15 15 16 15 15 19 23
15 17 18 24 23 24 26 27 27 27 28 25 22 19 18 17 15 14 12 13 13 15 14 12 16 15 20 24 21 17 20 14 8 6 7 6 9 10 10 15 16 24 24

GFSMW_925_spd_168.txt.gz
Wind_Speed
18 19 19 19 18 17 17 18 17 18 18 18 19 17 16 14 12 10 8 8 8 7 6 5 5 3 3 1 1 2 2 5 5 10 5 2 1 1 4 5 4 3 2
16 19 21 21 21 21 19 19 19 19 20 18 18 16 16 14 12 10 10 10 10 8 8 6 5 4 4 3 2 2 4 3 4 8 10 3 3 4 5 4 3 5 5
19 18 22 23 22 22 23 22 21 21 22 19 17 14 13 10 13 11 13 12 10 11 11 9 7 5 4 5 4 3 2 6 3 3 6 5 5 11 4 2 4 5 5
20 19 21 23 25 24 23 23 22 23 23 22 20 18 16 15 16 14 13 12 11 11 12 11 10 8 6 4 5 6 5 4 4 5 1 3 3 4 5 6 3 6 4
21 21 22 27 26 25 25 25 24 23 23 24 22 21 18 19 16 15 12 13 10 11 11 12 12 12 10 9 8 7 6 6 6 4 6 6 8 5 3 7 8 7 6
21 22 27 27 25 25 25 25 25 25 25 25 25 23 22 18 16 16 15 14 13 13 14 13 13 12 12 11 11 10 10 10 8 8 8 8 8 7 8 7 9 11 10
20 22 23 25 25 26 26 26 27 26 26 26 25 25 23 23 19 15 17 14 15 15 15 15 16 15 14 12 11 10 10 11 11 9 10 10 10 10 10 10 11 12 11
17 22 22 27 28 29 28 28 28 28 28 28 26 25 24 24 23 19 19 17 17 16 14 14 15 15 14 12 12 13 12 12 11 11 11 10 11 11 11 10 11 8 11
12 20 22 28 29 29 30 31 29 29 29 30 27 26 25 25 24 22 20 20 16 14 13 13 14 14 14 13 13 13 15 13 12 13 13 12 12 11 12 11 12 11 8
11 16 19 27 28 28 30 31 29 29 30 29 28 27 27 26 25 22 22 20 20 16 14 14 14 15 15 15 15 15 15 16 15 16 15 14 14 13 12 13 13 12 13
12 15 17 25 27 28 28 29 29 26 27 28 27 26 27 25 24 23 21 21 20 19 18 16 15 15 15 14 14 13 14 15 16 16 16 16 16 16 16 14 15 13 14
11 15 16 23 25 26 27 29 29 28 27 28 28 27 25 23 24 24 24 21 21 19 19 19 18 17 17 17 17 17 19 18 18 17 17 18 18 17 18 17 16 16 14
12 14 17 17 25 27 27 28 28 29 27 26 26 25 25 25 25 22 22 21 21 21 20 19 19 19 19 19 19 18 19 19 20 21 21 21 20 20 21 18 17 17 17
13 14 14 17 22 23 25 26 27 27 25 25 25 25 26 26 23 23 21 20 20 19 19 19 20 21 20 19 19 21 21 21 22 22 22 22 22 23 22 23 21 20 19
11 13 14 14 19 22 22 23 24 25 26 25 24 25 23 22 22 20 19 17 18 18 18 18 19 19 19 20 20 20 19 20 23 24 24 24 25 25 25 22 23 22 21
10 12 13 14 17 21 22 23 23 24 24 23 22 21 20 20 21 20 18 16 16 15 14 15 15 15 15 16 20 22 20 21 22 23 23 25 26 27 30 32 31 27 21
6 8 10 11 15 18 19 20 20 20 21 21 22 23 23 22 20 19 17 15 17 13 14 12 11 10 10 18 19 21 19 19 21 24 25 26 26 27 27 27 28 30 34
5 7 7 9 11 14 17 17 17 19 20 21 22 21 19 19 18 19 13 11 7 8 7 6 5 7 8 14 14 17 19 21 24 25 27 29 30 28 27 26 27 27 27
4 8 9 12 12 13 14 17 18 18 19 20 20 18 16 12 12 15 15 10 8 6 5 4 3 4 5 12 11 13 13 18 22 23 25 27 29 31 33 31 31 29 28
3 9 12 13 13 13 15 17 17 16 14 14 14 14 15 15 8 8 12 10 9 7 6 4 1 4 5 12 14 13 14 19 21 22 23 26 30 32 32 29 27 30 29
6 9 12 13 13 14 16 16 15 15 16 18 20 17 15 16 9 3 8 10 9 7 4 2 1 4 7 10 15 17 16 19 21 22 24 25 26 26 27 29 33 30 26
10 11 12 13 14 16 18 19 17 17 17 18 20 16 18 21 12 7 9 12 10 7 5 2 3 5 9 11 14 20 21 20 20 25 26 27 28 28 29 24 23 31 30
10 13 12 13 14 16 18 22 24 24 23 23 24 21 21 24 21 10 10 12 9 6 5 3 4 7 10 12 17 21 22 22 22 26 28 27 26 25 24 24 28 23 24
11 13 15 14 16 18 21 25 28 27 25 25 26 23 20 19 11 8 5 8 9 7 5 6 7 10 13 15 19 19 19 20 20 24 19 15 16 17 14 16 16 19 21
13 16 16 17 17 19 21 23 23 22 20 17 14 21 20 16 11 9 8 10 9 8 7 7 8 11 15 18 20 19 23 20 18 15 11 10 10 11 12 13 15 12 15
16 19 18 17 17 21 22 21 21 20 21 20 15 16 17 15 13 12 13 11 12 12 10 11 11 9 13 15 15 14 21 14 10 10 12 11 5 6 6 8 8 15 21

GFSMW_925_spd_171.txt.gz
Wind_Speed
16 20 19 20 19 20 20 19 17 19 21 20 20 19 18 15 13 15 11 9 7 10 9 9 9 7 8 3 2 7 10 3 16 7 26 10 2 1 5 3 4 5 2
18 19 21 22 22 21 21 21 19 21 21 20 21 18 20 17 16 12 12 11 10 10 10 9 7 9 5 5 4 4 11 6 11 12 14 3 11 11 13 3 3 3 7
18 19 21 23 22 23 23 22 21 21 21 21 20 15 14 15 15 13 13 13 11 11 11 9 10 4 10 10 7 5 6 5 9 3 6 4 2 10 3 3 4 6 3
19 18 21 23 24 25 24 22 22 22 22 23 23 20 18 16 17 15 15 14 12 12 12 12 11 8 9 2 3 6 5 4 11 3 1 3 7 6 6 5 10 7 3
19 21 21 26 25 25 25 25 24 23 24 24 19 20 21 18 19 16 14 17 16 12 13 14 13 12 11 9 9 7 4 8 7 12 6 9 9 11 6 8 5 14 8
19 21 26 27 25 26 26 26 26 25 24 26 23 23 21 20 18 19 20 17 17 14 15 14 14 13 13 13 10 10 10 10 13 11 12 11 9 13 10 8 10 9 13
16 20 22 24 27 27 27 27 27 26 26 26 27 25 22 21 18 20 19 17 20 18 23 19 15 14 13 11 10 11 10 10 11 10 13 14 12 12 13 11 13 12 12
15 19 22 27 29 28 29 28 29 28 27 27 27 26 25 22 20 18 19 17 16 11 14 16 14 15 14 13 12 12 12 14 13 11 11 13 15 12 13 13 12 8 12
6 18 22 29 29 30 30 29 30 29 29 28 28 27 26 25 24 23 22 17 13 15 10 11 14 14 15 15 14 15 12 15 13 12 12 12 14 17 13 14 12 10 8
5 11 19 28 31 31 31 30 30 31 31 29 27 27 27 27 26 24 24 20 21 20 12 13 14 15 16 16 17 15 17 17 16 16 17 16 18 18 12 14 14 14 13
7 11 17 28 31 31 31 30 30 29 28 29 28 27 27 26 25 24 22 23 20 18 18 16 14 16 17 18 17 17 18 12 15 15 16 16 17 18 19 16 18 18 16
7 13 16 25 29 30 30 31 30 29 30 29 27 27 26 25 24 24 24 22 23 22 20 19 20 19 18 18 17 18 19 18 18 19 19 18 19 19 21 18 19 19 19
8 14 17 18 24 29 29 31 31 29 28 27 28 27 26 25 24 24 24 24 23 22 21 21 21 21 21 20 21 21 20 20 21 21 21 21 22 23 22 21 22 21 24
10 15 16 18 23 24 24 24 29 30 27 28 27 26 27 26 25 23 23 22 23 22 22 22 21 20 20 21 22 21 21 22 21 22 22 23 23 23 22 23 24 24 22
10 15 16 16 18 20 24 23 27 26 28 26 27 28 27 25 24 22 21 21 21 22 21 20 21 21 21 21 24 24 23 22 22 22 22 24 26 28 26 23 24 24 24
8 12 14 17 19 23 22 25 24 27 27 26 28 27 25 25 25 23 22 22 21 20 19 20 21 22 21 24 24 21 19 18 19 21 23 24 25 26 29 32 35 31 24
5 10 12 14 21 24 24 24 24 23 25 25 24 22 22 22 21 21 21 22 21 20 19 18 16 19 13 16 18 19 15 17 20 22 24 24 26 26 26 28 31 33 35
4 8 9 14 19 22 24 24 24 22 22 21 21 20 21 22 21 20 21 20 19 18 17 12 11 11 10 16 20 20 19 16 20 22 24 25 27 27 27 27 26 27 28
3 8 12 14 15 18 20 21 21 21 20 21 21 21 22 21 20 21 18 15 10 10 8 8 7 7 10 13 15 14 11 16 20 22 22 24 25 26 25 23 29 33 30
2 7 11 14 16 17 19 20 19 19 19 18 18 18 19 19 18 18 23 15 7 6 6 6 5 6 6 11 13 15 14 18 20 22 23 25 27 29 29 28 28 26 28
4 8 12 12 14 15 17 18 16 14 12 13 17 17 17 21 17 16 13 13 11 6 5 5 4 5 6 8 15 17 16 17 20 23 24 24 24 24 23 23 23 28 26
5 9 12 12 10 11 14 15 14 14 14 16 18 21 19 16 15 17 17 13 10 8 5 3 4 5 6 11 11 12 19 21 20 24 25 24 25 29 30 29 26 26 22
6 12 13 13 13 13 13 14 15 16 15 15 15 14 14 14 15 16 17 14 9 2 5 1 4 5 8 10 16 19 19 20 21 22 24 29 30 24 24 27 26 24 22
6 10 10 11 15 15 14 13 17 18 19 19 19 18 16 13 11 13 13 9 7 2 2 1 2 5 8 12 14 15 16 17 16 15 17 18 16 16 17 18 14 16 20
7 10 12 13 15 16 17 19 21 22 21 20 20 20 24 23 18 8 8 9 7 1 2 2 3 5 9 12 12 12 16 16 14 12 11 13 11 13 13 13 13 15 13
8 11 13 16 15 18 19 21 23 23 23 21 20 17 16 19 15 20 13 9 9 10 9 8 6 4 7 11 10 8 12 15 13 11 13 14 13 11 10 10 7 6 8